TimeCDT,TemperatureF,Dew PointF,Humidity,Sea Level PressureIn,VisibilityMPH,Wind Direction,Wind SpeedMPH,Gust SpeedMPH,PrecipitationIn,Events,Conditions,WindDirDegrees,DateUTC
12:14 AM,64.4,64.4,100,29.96,2.5,Calm,Calm,-,N/A,,Overcast,0,2013-10-05 05:14:00
12:49 AM,62.6,62.6,100,29.95,1.2,NE,3.5,-,N/A,,Overcast,40,2013-10-05 05:49:00
12:52 AM,63.0,63.0,100,29.93,1.0,Calm,Calm,-,N/A,,Overcast,0,2013-10-05 05:52:00
1:00 AM,62.6,62.6,100,29.94,0.5,Calm,Calm,-,N/A,Fog,Fog,0,2013-10-05 06:00:00
1:11 AM,62.6,62.6,100,29.93,0.2,Calm,Calm,-,N/A,Fog,Fog,0,2013-10-05 06:11:00
1:19 AM,62.6,62.6,100,29.93,0.2,NE,3.5,-,N/A,Fog,Fog,50,2013-10-05 06:19:00
1:52 AM,63.0,63.0,100,29.92,0.2,Calm,Calm,-,N/A,Fog,Fog,0,2013-10-05 06:52:00
2:24 AM,62.6,62.6,100,29.93,0.2,Calm,Calm,-,N/A,Fog,Fog,0,2013-10-05 07:24:00
2:52 AM,62.1,62.1,100,29.91,0.2,Calm,Calm,-,N/A,Fog,Fog,0,2013-10-05 07:52:00
3:18 AM,62.6,62.6,100,29.92,0.2,Calm,Calm,-,N/A,Fog,Fog,0,2013-10-05 08:18:00
3:52 AM,63.0,63.0,100,29.91,0.2,Calm,Calm,-,N/A,Fog,Fog,0,2013-10-05 08:52:00
4:32 AM,62.6,62.6,100,29.92,0.2,Calm,Calm,-,N/A,Fog,Fog,0,2013-10-05 09:32:00
4:52 AM,61.0,61.0,100,29.91,0.2,Calm,Calm,-,N/A,Fog,Fog,0,2013-10-05 09:52:00
5:00 AM,60.8,60.8,100,29.92,0.2,Calm,Calm,-,N/A,Fog,Fog,0,2013-10-05 10:00:00
5:52 AM,61.0,61.0,100,29.90,0.2,Calm,Calm,-,N/A,Fog,Fog,0,2013-10-05 10:52:00
6:38 AM,62.6,62.6,100,29.91,0.5,Calm,Calm,-,N/A,Fog,Fog,0,2013-10-05 11:38:00
6:52 AM,61.0,61.0,100,29.89,0.2,Calm,Calm,-,N/A,Fog,Fog,0,2013-10-05 11:52:00
7:09 AM,60.8,60.8,100,29.90,0.8,Calm,Calm,-,N/A,,Overcast,0,2013-10-05 12:09:00
7:10 AM,60.8,60.8,100,29.90,0.8,Calm,Calm,-,N/A,,Overcast,0,2013-10-05 12:10:00
7:49 AM,64.4,64.4,100,29.91,0.8,Calm,Calm,-,N/A,,Partly Cloudy,0,2013-10-05 12:49:00
7:52 AM,64.9,64.9,100,29.89,0.8,Calm,Calm,-,N/A,,Scattered Clouds,0,2013-10-05 12:52:00
7:59 AM,66.2,66.2,100,29.91,1.0,South,3.5,-,N/A,,Scattered Clouds,190,2013-10-05 12:59:00
8:10 AM,66.2,66.2,100,29.91,1.0,South,4.6,-,N/A,,Mostly Cloudy,180,2013-10-05 13:10:00
8:20 AM,66.2,66.2,100,29.91,1.0,South,5.8,-,0.00,Rain,Light Rain,170,2013-10-05 13:20:00
8:52 AM,68.0,66.9,96,29.88,1.0,SSW,5.8,-,0.00,,Overcast,200,2013-10-05 13:52:00
8:59 AM,69.8,68.0,94,29.91,2.0,SSW,3.5,-,N/A,,Overcast,200,2013-10-05 13:59:00
9:52 AM,69.1,68.0,96,29.89,4.0,SSW,6.9,-,N/A,,Overcast,210,2013-10-05 14:52:00
10:19 AM,71.6,69.8,94,29.91,5.0,SSW,6.9,-,N/A,,Mostly Cloudy,200,2013-10-05 15:19:00
10:52 AM,73.9,69.1,85,29.87,6.0,SW,6.9,-,N/A,,Haze,220,2013-10-05 15:52:00
11:00 AM,75.2,69.8,83,29.89,7.0,South,8.1,-,N/A,,Scattered Clouds,190,2013-10-05 16:00:00
11:52 AM,77.0,70.0,79,29.86,8.0,South,6.9,-,N/A,,Scattered Clouds,190,2013-10-05 16:52:00
12:04 PM,78.8,71.6,78,29.88,7.0,SE,5.8,-,N/A,,Mostly Cloudy,140,2013-10-05 17:04:00
12:52 PM,75.9,69.1,79,29.84,7.0,SE,6.9,-,N/A,,Mostly Cloudy,130,2013-10-05 17:52:00
1:52 PM,77.0,69.1,76,29.81,7.0,South,10.4,-,N/A,,Mostly Cloudy,190,2013-10-05 18:52:00
2:42 PM,75.2,69.8,83,29.81,6.0,East,4.6,-,N/A,,Haze,100,2013-10-05 19:42:00
2:52 PM,75.0,69.1,82,29.79,6.0,ESE,4.6,-,N/A,,Haze,120,2013-10-05 19:52:00
3:28 PM,73.4,68.0,83,29.81,5.0,ESE,6.9,-,N/A,,Haze,120,2013-10-05 20:28:00
3:36 PM,71.6,68.0,88,29.80,5.0,ESE,10.4,-,N/A,,Mostly Cloudy,120,2013-10-05 20:36:00
3:52 PM,72.0,68.0,87,29.77,4.0,SE,9.2,-,N/A,,Partly Cloudy,130,2013-10-05 20:52:00
4:11 PM,69.8,68.0,94,29.80,1.8,SE,9.2,-,0.00,Rain,Rain,140,2013-10-05 21:11:00
4:52 PM,70.0,68.0,93,29.80,2.0,South,11.5,17.3,N/A,Rain,Light Rain,170,2013-10-05 21:52:00
4:55 PM,69.8,69.8,100,29.82,0.8,SSE,15.0,21.9,N/A,Rain-Thunderstorm,Thunderstorms and Rain,160,2013-10-05 21:55:00
4:58 PM,69.8,69.8,100,29.82,0.2,SE,19.6,25.3,N/A,Fog-Rain-Thunderstorm,Heavy Thunderstorms and Rain,140,2013-10-05 21:58:00
5:07 PM,66.2,66.2,100,29.83,0.2,SE,19.6,39.1,N/A,Fog-Rain-Thunderstorm,Heavy Thunderstorms and Rain,140,2013-10-05 22:07:00
5:14 PM,66.2,64.4,94,29.82,0.5,SE,10.4,33.4,N/A,Fog-Rain-Thunderstorm,Heavy Thunderstorms and Rain,140,2013-10-05 22:14:00
5:18 PM,66.2,64.4,94,29.81,1.0,SSE,12.7,27.6,N/A,Rain-Thunderstorm,Heavy Thunderstorms and Rain,150,2013-10-05 22:18:00
5:31 PM,66.2,64.4,94,29.81,2.0,Variable,3.5,-,N/A,Rain-Thunderstorm,Thunderstorms and Rain,0,2013-10-05 22:31:00
5:39 PM,66.2,64.4,94,29.81,5.0,WNW,3.5,-,N/A,Rain-Thunderstorm,Light Rain,290,2013-10-05 22:39:00
5:52 PM,64.9,64.9,100,29.81,1.8,Variable,4.6,-,N/A,Rain-Thunderstorm,Heavy Rain,0,2013-10-05 22:52:00
6:00 PM,64.4,64.4,100,29.82,0.8,Variable,3.5,-,0.02,Rain,Rain,0,2013-10-05 23:00:00
6:05 PM,64.4,62.6,94,29.83,1.0,SSW,6.9,-,0.03,Rain-Thunderstorm,Heavy Thunderstorms and Rain,200,2013-10-05 23:05:00
6:14 PM,66.2,64.4,94,29.82,2.5,SSE,5.8,-,0.04,Rain-Thunderstorm,Light Thunderstorms and Rain,150,2013-10-05 23:14:00
6:19 PM,66.2,64.4,94,29.82,4.0,East,4.6,-,0.05,Rain,Light Rain,90,2013-10-05 23:19:00
6:32 PM,66.2,64.4,94,29.81,10.0,SE,5.8,-,0.09,,Overcast,140,2013-10-05 23:32:00
6:52 PM,66.0,64.0,93,29.78,9.0,East,5.8,-,0.17,Rain,Light Rain,90,2013-10-05 23:52:00
7:52 PM,64.0,64.0,100,29.78,7.0,Calm,Calm,-,0.19,,Clear,0,2013-10-06 00:52:00
8:52 PM,64.9,64.9,100,29.78,8.0,South,3.5,-,0.17,,Mostly Cloudy,190,2013-10-06 01:52:00
9:39 PM,66.2,64.4,94,29.80,6.0,SSE,6.9,-,0.11,Rain,Light Rain,160,2013-10-06 02:39:00
9:42 PM,66.2,64.4,94,29.79,2.5,SE,5.8,-,0.11,Rain,Heavy Rain,140,2013-10-06 02:42:00
9:49 PM,66.2,64.4,94,29.79,2.0,SSE,5.8,-,0.13,Rain,Light Rain,150,2013-10-06 02:49:00
9:52 PM,66.0,64.9,96,29.76,4.0,SSE,4.6,-,0.13,Rain,Light Rain,160,2013-10-06 02:52:00
10:02 PM,66.2,64.4,94,29.78,4.0,SSE,4.6,-,0.02,Rain,Light Rain,160,2013-10-06 03:02:00
10:52 PM,66.0,64.0,93,29.75,8.0,Variable,4.6,-,0.12,,Mostly Cloudy,0,2013-10-06 03:52:00
11:02 PM,66.2,64.4,94,29.77,10.0,Variable,3.5,-,0.02,,Mostly Cloudy,0,2013-10-06 04:02:00
11:13 PM,64.4,62.6,94,29.76,10.0,Variable,3.5,-,0.04,,Scattered Clouds,0,2013-10-06 04:13:00
11:52 PM,64.0,63.0,96,29.73,10.0,SSW,8.1,-,0.10,,Mostly Cloudy,210,2013-10-06 04:52:00